Theta_e
314 314 315 315 315 315 315 314 309 308 311 311 311 309 305 305 305 305 305 304 304 304 304 304 306 309 311 311 311 311 306 306 308 306 308 307 308 308 310 312 312 313 314 314 319
314 314 314 315 315 315 315 315 312 308 309 310 309 308 305 305 305 305 303 303 303 304 305 305 308 309 310 310 310 307 304 307 305 304 305 306 307 307 309 310 312 314 314 315 319
316 314 314 314 315 315 315 314 312 308 308 309 308 307 305 304 306 304 303 303 303 303 305 306 309 309 309 308 308 306 305 306 305 307 305 305 306 306 307 308 309 312 314 317 320
315 315 315 316 315 314 314 311 308 307 306 307 307 306 305 306 308 304 303 303 303 303 305 307 309 309 307 306 307 306 305 306 306 305 305 304 305 305 305 307 307 309 313 317 319
316 315 315 315 314 314 314 309 306 305 305 307 307 305 305 306 304 304 303 303 303 304 306 307 308 307 306 307 306 306 305 305 305 305 305 305 303 304 305 306 308 310 315 317 317
315 315 314 315 314 314 314 309 305 305 304 305 305 305 306 305 303 303 303 303 303 304 305 306 306 306 306 305 305 305 305 304 305 305 305 304 303 304 304 304 307 312 315 316 316
315 315 313 314 314 313 313 308 306 304 304 303 305 306 306 303 304 303 303 303 303 304 305 306 306 306 305 304 305 304 304 303 304 304 305 305 305 303 303 304 308 312 314 315 315
315 313 314 314 313 313 313 308 308 306 305 303 304 305 303 304 304 303 303 303 303 303 304 305 306 306 305 304 305 302 301 302 304 303 305 305 303 303 303 303 304 307 311 311 311
313 313 314 313 313 314 311 307 310 312 307 304 305 304 304 305 304 303 304 304 303 304 305 306 305 306 307 303 303 304 303 306 305 303 302 305 305 304 303 303 303 303 303 304 306
312 312 313 313 313 313 308 309 308 311 310 307 305 306 305 305 304 304 304 305 305 306 306 308 307 302 300 302 302 307 308 307 307 303 301 303 303 303 303 303 303 302 303 303 304
311 312 312 313 313 311 309 308 308 306 305 303 303 303 304 305 304 305 305 306 307 307 306 308 304 302 303 303 304 305 307 307 306 302 301 302 300 300 302 301 301 302 302 303 303
312 312 313 311 310 309 308 305 304 304 303 304 304 304 304 304 304 305 306 306 307 306 306 305 304 303 302 303 304 305 307 306 303 301 301 299 300 299 299 300 301 302 302 302 302
312 312 312 312 309 307 305 304 304 304 304 303 303 304 304 304 303 304 305 306 303 302 301 304 303 303 303 301 305 301 304 303 303 299 298 296 300 300 299 299 300 300 301 301 301
312 312 312 312 307 306 304 304 304 305 296 300 303 304 304 305 304 304 304 305 303 301 302 301 301 302 301 300 301 306 299 300 299 296 298 295 299 297 297 297 298 299 300 301 300
312 313 312 310 307 305 305 304 304 306 297 300 303 304 304 304 303 303 304 305 302 300 300 301 300 300 300 299 299 302 298 299 298 291 291 293 290 294 296 296 296 297 299 300 300
313 312 311 308 305 305 305 305 307 298 296 297 301 301 301 301 301 302 303 304 302 300 299 299 299 298 299 298 298 297 297 294 293 288 289 286 290 295 295 297 296 296 298 299 299
310 308 307 306 305 305 306 307 299 298 294 298 301 301 300 299 300 299 299 298 299 296 296 297 299 298 297 300 298 295 291 291 292 290 295 278 292 299 297 295 295 296 298 299 299
308 308 307 306 304 304 305 299 296 290 293 299 301 301 301 298 299 298 300 298 297 297 292 291 294 294 295 297 299 297 290 291 289 292 293 280 292 297 295 295 296 296 297 298 298
311 310 305 303 303 303 303 296 295 295 301 302 301 296 294 298 297 296 298 298 298 297 296 293 295 296 295 295 294 295 290 291 284 274 286 290 291 293 294 291 294 296 296 297 298
310 307 303 302 302 302 299 296 294 298 301 301 301 296 292 292 297 293 295 298 299 297 295 295 293 289 296 295 293 292 292 292 287 289 287 289 281 295 291 289 288 293 296 297 298
305 305 303 303 303 303 296 287 291 299 301 301 301 294 299 295 297 294 297 298 298 297 296 290 289 291 294 288 289 290 290 289 288 290 289 289 293 288 287 282 285 292 295 297 298
302 302 302 303 303 291 288 287 299 301 301 300 299 298 295 296 296 290 298 296 298 296 298 297 293 290 290 293 293 293 291 293 292 288 287 290 293 286 280 286 291 295 297 298 298
300 301 301 303 296 287 291 295 299 299 299 299 298 298 296 291 293 297 298 299 299 297 298 296 289 287 294 292 291 292 294 291 287 291 290 290 295 284 285 291 295 295 296 296 296
301 296 299 301 296 294 289 292 295 299 300 299 299 298 297 290 293 290 296 298 298 298 299 297 294 290 294 292 286 291 292 293 290 286 294 291 296 294 294 285 292 294 294 294 295
300 297 296 292 294 296 295 294 295 295 298 298 294 297 294 292 292 289 295 296 298 298 297 294 289 291 289 286 285 289 292 290 290 293 292 296 286 293 294 293 293 294 295 295 295
298 298 296 297 297 297 296 295 294 293 297 297 294 296 295 291 294 295 295 296 296 297 296 293 287 284 287 289 291 291 292 292 290 292 287 292 293 292 293 292 292 292 294 294 295
300 299 298 295 296 294 294 295 296 296 297 297 297 296 296 296 297 296 296 295 295 294 295 288 283 281 286 283 283 288 285 288 286 281 286 288 289 280 288 290 291 292 293 293 294
Wind_Speed
12 11 11 11 13 15 16 16 15 15 11 6 5 4 4 3 3 2 5 7 7 5 3 1 4 6 6 4 4 2 4 1 2 4 2 6 2 3 2 3 1 1 2 2 11
11 11 12 12 13 14 16 17 15 13 11 7 4 2 1 2 2 7 7 6 5 3 1 3 5 5 2 3 2 4 3 3 1 0 2 5 3 4 3 1 1 3 4 5 13
11 11 11 13 14 15 16 15 13 13 10 7 4 2 1 1 2 9 9 6 4 1 1 4 5 3 3 2 3 2 2 1 1 3 3 5 3 6 3 2 2 3 6 10 15
16 9 11 11 12 12 14 15 14 12 9 6 4 2 2 2 2 10 9 6 3 2 2 4 3 2 3 2 2 3 2 1 2 5 4 4 7 4 1 2 4 4 7 12 14
12 10 10 11 11 13 12 15 13 11 8 5 3 1 3 6 6 8 8 5 3 4 3 3 4 2 3 3 2 2 1 3 3 5 5 6 4 4 5 4 4 2 9 10 10
9 9 10 9 11 11 12 13 10 10 7 5 3 2 2 6 8 8 8 6 4 5 4 4 4 5 5 3 3 1 3 2 3 4 4 4 3 4 3 5 3 5 8 9 8
9 9 9 9 11 12 11 8 9 9 7 5 4 6 9 6 9 9 7 6 5 5 5 5 5 3 3 3 3 3 2 3 7 8 3 6 1 1 6 1 3 6 6 8 8
7 9 8 9 12 13 5 5 6 7 8 6 4 4 6 9 8 7 6 7 6 6 6 6 6 6 4 4 5 4 5 4 4 10 4 4 6 1 4 3 4 6 8 9 10
6 8 8 10 10 7 6 6 6 6 7 6 6 5 4 7 9 10 9 8 8 8 8 6 4 5 3 4 4 6 0 1 4 5 4 2 5 3 6 4 8 7 7 8 9
5 7 9 10 8 2 5 6 9 3 3 5 8 4 9 9 9 9 7 8 6 6 4 3 5 4 5 5 2 3 2 3 3 5 5 3 8 5 7 6 9 11 10 11 11
6 9 10 6 5 4 8 2 2 6 22 12 9 5 9 6 11 9 6 5 6 5 4 5 6 3 2 2 3 1 1 3 2 3 4 4 6 10 10 9 12 14 13 12 11
6 9 7 9 8 7 8 6 9 6 11 15 12 8 13 11 5 13 8 4 3 3 6 6 4 4 3 4 3 5 1 3 4 4 3 5 12 11 11 10 15 16 13 11 11
4 7 3 7 9 9 9 11 8 5 5 10 14 11 12 11 9 16 12 5 7 5 6 5 2 6 3 6 4 3 3 4 3 7 2 8 7 5 4 9 12 12 11 10 10
3 4 2 4 6 7 8 6 4 3 5 11 10 9 11 4 5 14 11 5 7 2 3 5 6 4 5 5 4 1 3 2 3 5 3 5 5 7 5 7 4 10 11 11 10
3 3 5 6 5 5 3 2 1 0 5 8 7 7 7 7 5 10 13 9 4 3 4 3 5 6 7 1 1 1 4 3 3 3 4 6 3 8 5 6 7 16 17 15 12
5 8 4 5 7 6 4 3 2 6 1 7 7 10 6 11 7 10 5 7 4 4 6 2 2 3 1 1 2 2 1 5 3 3 3 3 4 6 3 5 5 7 23 20 15
8 7 6 6 5 4 3 2 5 6 3 7 4 6 1 6 7 10 6 7 3 5 5 5 3 3 5 2 2 5 6 4 5 4 5 2 2 11 6 7 6 12 15 20 16
6 6 7 7 5 4 4 5 9 3 5 2 3 3 4 6 4 8 3 4 5 4 3 4 6 4 7 4 1 4 5 5 5 2 5 2 6 6 4 8 13 14 15 17 17
2 2 5 6 6 6 2 6 7 6 1 3 2 5 5 3 1 4 4 1 1 2 4 3 4 1 3 1 2 2 2 3 6 1 3 3 8 10 2 6 8 9 10 17 17
1 0 5 6 6 5 4 3 2 2 1 1 2 2 1 5 4 5 3 2 2 3 1 2 3 2 3 1 5 4 2 3 3 2 5 5 6 6 5 6 7 7 12 15 17
3 3 6 7 6 4 4 5 3 2 1 2 2 1 2 2 1 1 1 1 0 1 3 4 4 4 1 2 5 2 2 3 3 3 4 3 6 7 7 4 6 14 15 17 19
2 2 4 5 3 5 2 2 1 1 0 1 1 3 3 1 2 1 3 5 1 1 1 0 4 2 7 1 2 3 5 4 4 6 3 1 9 1 5 7 10 15 14 16 20
3 2 3 2 3 1 1 1 1 1 1 0 1 2 2 3 2 2 2 1 1 1 2 3 2 3 8 3 3 3 4 4 3 1 7 2 7 3 5 7 11 16 30 22 29
1 2 2 4 6 6 4 1 0 1 1 1 0 2 1 3 0 3 2 1 1 1 2 2 2 7 7 7 3 2 3 4 5 2 7 8 25 14 18 7 26 36 37 32 26
2 1 1 2 3 5 2 5 3 2 2 2 3 3 4 1 3 3 2 3 1 0 2 3 4 2 4 6 2 5 12 6 10 12 5 28 6 20 19 15 31 35 31 33 33
1 2 3 4 3 3 1 5 7 3 5 2 3 3 4 4 5 3 2 2 3 1 3 2 2 2 5 4 1 6 15 12 12 14 11 20 23 21 22 15 24 31 26 30 32
4 4 2 2 3 3 4 5 6 8 5 2 5 4 3 5 7 8 8 7 4 3 4 2 3 3 6 4 6 7 7 5 3 4 6 5 9 5 13 23 29 30 29 30 32
Wind_Direction
347 348 351 354 356 358 359 2 359 353 351 351 344 346 346 31 48 38 9 353 342 342 11 95 133 141 138 116 92 109 68 209 214 159 298 3 45 54 49 135 159 225 225 253 190
337 340 344 347 347 349 350 349 353 352 347 344 349 353 345 65 45 39 15 353 344 351 62 129 125 130 93 92 58 76 99 227 265 342 332 350 38 352 7 13 299 268 266 220 188
318 330 340 342 344 347 350 347 349 347 346 341 339 357 84 31 23 9 6 357 352 355 103 104 129 101 72 82 40 87 152 218 12 26 343 338 358 351 20 325 285 275 243 190 186
335 325 335 341 349 355 351 352 355 348 341 343 339 351 87 69 49 351 357 359 20 75 120 119 120 62 65 82 67 79 45 33 25 9 1 359 329 339 283 272 300 271 215 189 196
345 344 340 346 352 352 355 355 358 354 348 346 2 36 99 89 29 356 1 1 42 86 114 106 100 73 101 83 74 73 45 40 26 15 357 328 317 294 290 277 287 213 182 190 203
328 337 347 346 346 352 355 353 1 2 4 11 40 78 83 79 11 9 10 16 41 84 86 100 92 87 96 69 66 45 84 45 23 15 2 2 299 329 358 294 242 175 185 198 213
324 335 340 345 344 334 336 348 15 18 22 37 67 80 77 62 27 20 16 32 52 71 96 83 89 43 70 77 42 73 33 2 22 348 12 340 294 274 328 309 207 199 205 214 224
317 328 333 335 344 344 355 348 5 31 31 49 55 69 72 40 28 28 33 37 57 74 97 89 98 73 49 102 26 41 42 18 349 10 14 45 277 293 343 240 236 222 227 234 236
328 336 331 335 345 4 9 22 23 28 34 54 53 79 45 24 29 35 40 57 69 82 89 93 83 75 54 59 17 16 314 324 322 47 330 57 278 292 329 250 237 232 229 230 231
343 344 338 339 343 12 31 77 44 16 66 35 41 70 29 2 20 26 37 55 66 85 83 64 53 67 31 51 225 309 358 309 279 342 359 299 268 284 296 254 235 229 227 225 230
7 3 350 359 48 49 31 56 49 60 61 62 47 62 14 23 40 26 37 47 29 38 39 18 66 59 21 351 268 274 298 296 320 29 343 268 280 274 269 257 238 231 229 230 237
13 14 48 53 58 39 22 78 96 114 73 54 54 46 28 20 24 31 29 51 43 35 353 23 59 343 294 18 66 38 356 308 288 23 353 354 282 257 243 241 237 235 229 237 253
4 11 63 51 36 31 61 101 98 69 77 27 29 23 16 22 32 8 19 24 57 48 9 103 342 321 70 32 32 45 15 352 291 330 72 330 288 304 266 240 242 237 237 243 262
351 18 102 39 32 41 63 91 74 30 75 334 352 15 360 18 43 17 17 29 34 123 45 75 331 23 53 66 14 5 348 319 342 33 272 18 282 298 329 296 268 241 238 243 257
35 24 113 34 36 38 60 110 121 19 59 311 326 342 7 66 327 12 26 57 72 20 74 276 5 19 54 328 347 249 32 39 66 81 36 353 64 275 359 310 266 237 233 236 242
65 94 73 31 33 55 69 80 19 42 298 339 334 352 7 18 13 348 30 60 76 82 37 94 38 47 7 347 20 357 45 36 55 92 19 230 112 286 255 222 276 262 229 228 229
98 72 56 36 31 37 30 352 39 89 344 310 330 3 75 349 356 22 24 16 45 48 356 353 15 2 27 340 357 53 48 339 353 7 222 348 41 243 257 243 253 285 261 229 225
106 67 46 26 14 1 341 50 67 244 239 347 324 318 51 353 18 352 55 36 36 63 92 92 333 14 356 50 336 37 126 149 239 268 276 353 241 248 223 311 295 283 276 233 230
155 35 18 22 5 348 45 51 186 197 218 327 311 53 331 5 45 36 21 149 276 36 125 68 305 38 39 356 72 278 34 144 98 95 35 272 294 297 319 303 288 285 263 231 234
204 315 3 357 351 349 72 174 162 234 315 234 102 120 281 305 22 49 351 295 12 42 66 170 351 279 290 115 39 137 152 30 9 332 307 292 277 240 327 312 314 286 252 245 245
331 312 347 348 350 10 110 207 225 200 149 19 145 12 234 258 278 265 249 191 46 126 88 133 98 287 28 191 186 25 338 40 118 140 184 283 257 213 221 233 301 309 285 271 262
322 344 343 352 15 65 78 201 86 126 314 79 95 116 178 172 301 309 277 210 8 119 72 19 128 268 230 352 245 220 218 166 123 269 227 175 272 79 239 263 291 317 335 318 281
320 319 355 8 105 356 328 15 105 19 7 223 79 11 100 174 12 245 285 263 257 198 171 178 320 358 338 353 345 243 211 135 120 77 209 127 263 255 266 295 310 305 318 314 311
328 12 21 60 85 122 135 251 315 175 175 188 135 140 152 16 47 264 273 276 263 225 135 164 189 179 205 214 124 258 249 184 137 157 279 213 275 296 295 320 315 315 315 316 312
3 86 105 288 2 108 111 144 132 216 208 193 347 210 165 342 323 264 262 299 251 223 131 132 212 258 258 240 177 239 258 201 198 236 217 277 255 281 292 305 301 308 318 318 314
215 177 125 89 110 120 5 216 172 240 153 249 174 182 165 179 199 272 192 225 250 79 156 23 272 73 298 346 274 265 264 252 240 255 259 269 278 282 286 309 313 317 322 318 317
206 197 176 152 144 100 227 176 210 162 205 200 198 137 202 242 268 267 249 261 253 178 169 115 120 59 265 321 327 302 233 208 222 223 179 230 248 329 320 322 322 318 319 315 312